Tracking 32412 objects as of 6-Dec-2025
HD Live streaming from Space Station
objects crossing your sky now

USA 310

Track USA 310 now!
10-day predictions
USA 310 is classified as:


NORAD ID: 46918
Int'l Code: 2020-083A
Perigee: 11,078.0 km
Apogee: 11,108.1 km
Inclination: 58.7 °
Period: 382.8 minutes
Semi major axis: 17464 km
RCS: Unknown
Launch date: November 13, 2020
Source: United States (US)
Launch site: AIR FORCE EASTERN TEST RANGE (AFETR)
Your satellite tracking list
Your tracking list is empty




NASA's NSSDC Master Catalog

Two Line Element Set (TLE):
1 46918U 20083A   25279.45191846 0.00000000  00000-0  00000-0 0    07
2 46918  58.7386  19.3197 0008643  41.6246 318.3754  3.76171233    05
Source of the keplerian elements: McCants